{"data":{"norad_id":64605,"epoch":"2026-09-19T22:51:00.550080Z","epoch_age_seconds":178939,"freshness":"STALE","line1":"1 64605U 25137M   26262.95208970  .00019282  00000+0  63125-3 0  9998","line2":"2 64605  53.1582 151.0418 0001588  61.2200 298.8961 15.31712547 70602","mean_motion":15.31712547,"eccentricity":0.0001588,"inclination_deg":53.1582,"raan_deg":151.0418,"arg_perigee_deg":61.22,"mean_anomaly_deg":298.8961,"bstar":0.00063125,"rev_number":7060,"period_min":94.012417853492,"perigee_km":469.6149977994,"apogee_km":471.79018925431,"semimajor_km":6848.8395935269,"source":"CELESTRAK","updated_at":"2026-09-21T09:00:35.366090Z"}}